timestamp,wind_dir_avg,wind_spd_max_dir,wind_spd_avg,wind_spd_gust,battery_voltage,lat,long
2018-06-15 00:00:00+00:00,129.0,130.0,5.82,7.79,,47.59359,-54.27349
2018-06-15 00:10:00+00:00,126.0,132.0,5.13,6.52,,47.59359,-54.27349
2018-06-15 00:20:00+00:00,132.0,136.0,5.33,5.83,,47.59359,-54.27349
2018-06-15 00:30:00+00:00,113.0,113.0,4.14,5.53,,47.59359,-54.27349
2018-06-15 00:40:00+00:00,121.0,114.0,3.61,5.29,,47.59359,-54.27349
2018-06-15 00:50:00+00:00,122.0,136.0,4.51,7.61,,47.59359,-54.27349
2018-06-15 01:00:00+00:00,133.0,137.0,5.58,6.68,,47.59359,-54.27349
2018-06-15 01:10:00+00:00,115.0,150.0,3.56,5.48,,47.59359,-54.27349
2018-06-15 01:20:00+00:00,113.0,143.0,2.59,5.03,,47.59359,-54.27349
2018-06-15 01:30:00+00:00,87.0,89.0,4.99,6.28,,47.59359,-54.27349
2018-06-15 01:40:00+00:00,90.0,102.0,3.69,4.98,,47.59359,-54.27349
2018-06-15 01:50:00+00:00,91.0,86.0,4.0,5.46,,47.59359,-54.27349
2018-06-15 02:00:00+00:00,88.0,99.0,3.76,5.5,,47.59359,-54.27349
2018-06-15 02:10:00+00:00,90.0,94.0,3.69,5.0,,47.59359,-54.27349
2018-06-15 02:20:00+00:00,90.0,104.0,3.16,4.41,,47.59359,-54.27349
2018-06-15 02:30:00+00:00,83.0,79.0,5.19,6.02,,47.59359,-54.27349
2018-06-15 02:40:00+00:00,85.0,94.0,4.81,5.81,,47.59359,-54.27349
2018-06-15 02:50:00+00:00,79.0,82.0,5.06,5.82,,47.59359,-54.27349
2018-06-15 03:00:00+00:00,71.0,71.0,5.18,6.0,,47.59359,-54.27349
2018-06-15 03:10:00+00:00,75.0,75.0,5.1,5.64,,47.59359,-54.27349
2018-06-15 03:20:00+00:00,69.0,65.0,5.8,6.35,,47.59359,-54.27349
2018-06-15 03:30:00+00:00,74.0,73.0,6.24,6.84,,47.59359,-54.27349
2018-06-15 03:40:00+00:00,76.0,76.0,6.06,7.32,,47.59359,-54.27349
2018-06-15 03:50:00+00:00,85.0,90.0,4.24,5.15,,47.59359,-54.27349
2018-06-15 04:00:00+00:00,87.0,86.0,3.82,5.09,,47.59359,-54.27349
2018-06-15 04:10:00+00:00,89.0,79.0,3.14,4.18,,47.59359,-54.27349
2018-06-15 04:20:00+00:00,90.0,90.0,3.21,4.57,,47.59359,-54.27349
2018-06-15 04:30:00+00:00,84.0,83.0,2.96,3.22,,47.59359,-54.27349
2018-06-15 04:40:00+00:00,78.0,81.0,3.82,4.07,,47.59359,-54.27349
2018-06-15 04:50:00+00:00,77.0,80.0,4.75,5.44,,47.59359,-54.27349
2018-06-15 05:00:00+00:00,66.0,63.0,5.88,6.51,,47.59359,-54.27349
2018-06-15 05:10:00+00:00,63.0,60.0,6.37,6.89,,47.59359,-54.27349
2018-06-15 05:20:00+00:00,69.0,73.0,7.57,8.14,,47.59359,-54.27349
2018-06-15 05:30:00+00:00,64.0,64.0,7.07,7.97,,47.59359,-54.27349
2018-06-15 05:40:00+00:00,63.0,61.0,7.01,7.89,,47.59359,-54.27349
2018-06-15 05:50:00+00:00,65.0,63.0,7.27,8.09,,47.59359,-54.27349
2018-06-15 06:00:00+00:00,71.0,70.0,6.71,7.46,,47.59359,-54.27349
2018-06-15 06:10:00+00:00,68.0,63.0,6.98,8.04,,47.59359,-54.27349
2018-06-15 06:20:00+00:00,67.0,69.0,7.49,8.27,,47.59359,-54.27349
2018-06-15 06:30:00+00:00,64.0,60.0,8.29,9.05,,47.59359,-54.27349
2018-06-15 06:40:00+00:00,63.0,62.0,7.97,8.98,,47.59359,-54.27349
2018-06-15 06:50:00+00:00,65.0,68.0,7.45,8.55,,47.59359,-54.27349
2018-06-15 07:00:00+00:00,64.0,65.0,8.15,9.0,,47.59359,-54.27349
2018-06-15 07:10:00+00:00,63.0,68.0,8.42,9.45,,47.59359,-54.27349
2018-06-15 07:20:00+00:00,66.0,70.0,7.3,9.05,,47.59359,-54.27349
2018-06-15 07:30:00+00:00,67.0,68.0,8.42,9.18,,47.59359,-54.27349
2018-06-15 07:40:00+00:00,64.0,62.0,7.02,8.23,,47.59359,-54.27349
2018-06-15 07:50:00+00:00,70.0,70.0,6.07,7.48,,47.59359,-54.27349
2018-06-15 08:00:00+00:00,68.0,68.0,6.78,7.58,,47.59359,-54.27349
2018-06-15 08:10:00+00:00,60.0,58.0,7.01,7.98,,47.59359,-54.27349
2018-06-15 08:20:00+00:00,59.0,57.0,7.96,8.68,,47.59359,-54.27349
2018-06-15 08:30:00+00:00,63.0,61.0,7.61,8.36,,47.59359,-54.27349
2018-06-15 08:40:00+00:00,60.0,59.0,7.86,8.56,,47.59359,-54.27349
2018-06-15 08:50:00+00:00,59.0,59.0,8.39,8.98,,47.59359,-54.27349
2018-06-15 09:00:00+00:00,61.0,63.0,7.6,8.15,,47.59359,-54.27349
2018-06-15 09:10:00+00:00,63.0,57.0,8.15,9.53,,47.59359,-54.27349
2018-06-15 09:20:00+00:00,58.0,60.0,7.68,8.43,,47.59359,-54.27349
2018-06-15 09:30:00+00:00,55.0,52.0,7.88,8.96,,47.59359,-54.27349
2018-06-15 09:40:00+00:00,57.0,61.0,7.97,9.24,,47.59359,-54.27349
2018-06-15 09:50:00+00:00,56.0,57.0,7.95,8.85,,47.59359,-54.27349
2018-06-15 10:00:00+00:00,57.0,53.0,7.04,7.66,,47.59359,-54.27349
2018-06-15 10:10:00+00:00,59.0,56.0,7.58,8.15,,47.59359,-54.27349
2018-06-15 10:20:00+00:00,58.0,58.0,7.55,8.84,,47.59359,-54.27349
2018-06-15 10:30:00+00:00,57.0,56.0,7.75,8.91,,47.59359,-54.27349
2018-06-15 10:40:00+00:00,53.0,53.0,7.15,8.24,,47.59359,-54.27349
2018-06-15 10:50:00+00:00,54.0,54.0,8.72,9.67,,47.59359,-54.27349
2018-06-15 11:00:00+00:00,57.0,60.0,7.26,8.14,,47.59359,-54.27349
2018-06-15 11:10:00+00:00,58.0,58.0,7.15,8.21,,47.59359,-54.27349
2018-06-15 11:20:00+00:00,62.0,62.0,7.04,7.95,,47.59359,-54.27349
2018-06-15 11:30:00+00:00,55.0,54.0,6.87,7.83,,47.59359,-54.27349
2018-06-15 11:40:00+00:00,58.0,61.0,6.35,6.89,,47.59359,-54.27349
2018-06-15 11:50:00+00:00,57.0,60.0,7.29,7.9,,47.59359,-54.27349
2018-06-15 12:00:00+00:00,58.0,60.0,7.5,9.1,,47.59359,-54.27349
2018-06-15 12:10:00+00:00,54.0,57.0,5.76,6.7,,47.59359,-54.27349
2018-06-15 12:20:00+00:00,56.0,52.0,6.23,6.9,,47.59359,-54.27349
2018-06-15 12:30:00+00:00,52.0,51.0,6.19,6.83,,47.59359,-54.27349
2018-06-15 12:40:00+00:00,53.0,54.0,7.23,7.76,,47.59359,-54.27349
2018-06-15 12:50:00+00:00,59.0,58.0,6.03,6.72,,47.59359,-54.27349
2018-06-15 13:00:00+00:00,56.0,56.0,5.24,5.95,,47.59359,-54.27349
2018-06-15 13:10:00+00:00,54.0,54.0,5.58,6.24,,47.59359,-54.27349
2018-06-15 13:20:00+00:00,58.0,57.0,6.6,7.09,,47.59359,-54.27349
2018-06-15 13:30:00+00:00,55.0,56.0,5.78,6.57,,47.59359,-54.27349
2018-06-15 13:40:00+00:00,53.0,53.0,5.14,5.59,,47.59359,-54.27349
2018-06-15 13:50:00+00:00,51.0,50.0,6.13,6.72,,47.59359,-54.27349
2018-06-15 14:00:00+00:00,49.0,54.0,5.13,5.66,,47.59359,-54.27349
2018-06-15 14:10:00+00:00,52.0,52.0,6.03,6.69,,47.59359,-54.27349
2018-06-15 14:20:00+00:00,59.0,56.0,5.23,6.1,,47.59359,-54.27349
2018-06-15 14:30:00+00:00,54.0,54.0,4.36,4.87,,47.59359,-54.27349
2018-06-15 14:40:00+00:00,49.0,51.0,4.35,4.72,,47.59359,-54.27349
2018-06-15 14:50:00+00:00,47.0,48.0,4.0,4.59,,47.59359,-54.27349
2018-06-15 15:00:00+00:00,48.0,50.0,3.65,3.97,,47.59359,-54.27349
2018-06-15 15:10:00+00:00,63.0,65.0,3.81,4.27,,47.59359,-54.27349
2018-06-15 15:20:00+00:00,71.0,72.0,4.07,4.64,,47.59359,-54.27349
2018-06-15 15:30:00+00:00,66.0,67.0,3.8,4.29,,47.59359,-54.27349
2018-06-15 15:40:00+00:00,65.0,63.0,4.71,5.07,,47.59359,-54.27349
2018-06-15 15:50:00+00:00,53.0,54.0,4.8,5.29,,47.59359,-54.27349
2018-06-15 16:00:00+00:00,43.0,42.0,4.74,5.04,,47.59359,-54.27349
2018-06-15 16:10:00+00:00,51.0,53.0,5.72,6.29,,47.59359,-54.27349
2018-06-15 16:20:00+00:00,64.0,59.0,4.71,5.4,,47.59359,-54.27349
2018-06-15 16:30:00+00:00,71.0,72.0,5.27,5.8,,47.59359,-54.27349
2018-06-15 16:40:00+00:00,64.0,62.0,4.96,5.42,,47.59359,-54.27349
2018-06-15 16:50:00+00:00,68.0,71.0,4.96,5.34,,47.59359,-54.27349
2018-06-15 17:00:00+00:00,64.0,60.0,4.64,5.19,,47.59359,-54.27349
2018-06-15 17:10:00+00:00,66.0,63.0,4.51,5.02,,47.59359,-54.27349
2018-06-15 17:20:00+00:00,76.0,72.0,3.86,4.43,,47.59359,-54.27349
2018-06-15 17:30:00+00:00,86.0,89.0,4.57,5.76,,47.59359,-54.27349
2018-06-15 17:40:00+00:00,88.0,96.0,3.95,4.83,,47.59359,-54.27349
2018-06-15 17:50:00+00:00,105.0,101.0,3.31,4.44,,47.59359,-54.27349
2018-06-15 18:00:00+00:00,96.0,94.0,3.74,5.05,,47.59359,-54.27349
2018-06-15 18:10:00+00:00,75.0,76.0,4.01,4.41,,47.59359,-54.27349
2018-06-15 18:20:00+00:00,64.0,66.0,4.28,4.72,,47.59359,-54.27349
2018-06-15 18:30:00+00:00,63.0,65.0,3.98,4.13,,47.59359,-54.27349
2018-06-15 18:40:00+00:00,56.0,58.0,2.65,2.98,,47.59359,-54.27349
2018-06-15 18:50:00+00:00,68.0,70.0,2.33,2.51,,47.59359,-54.27349
2018-06-15 19:00:00+00:00,55.0,57.0,1.97,2.22,,47.59359,-54.27349
2018-06-15 19:10:00+00:00,48.0,50.0,2.45,2.65,,47.59359,-54.27349
2018-06-15 19:20:00+00:00,10.0,13.0,2.85,3.11,,47.59359,-54.27349
2018-06-15 19:30:00+00:00,4.0,2.0,3.31,3.58,,47.59359,-54.27349
2018-06-15 19:40:00+00:00,40.0,38.0,2.49,2.69,,47.59359,-54.27349
2018-06-15 19:50:00+00:00,56.0,56.0,1.74,2.03,,47.59359,-54.27349
2018-06-15 20:00:00+00:00,119.0,122.0,2.07,2.92,,47.59359,-54.27349
2018-06-15 20:10:00+00:00,62.0,69.0,1.68,2.1,,47.59359,-54.27349
2018-06-15 20:20:00+00:00,33.0,45.0,1.12,1.31,,47.59359,-54.27349
2018-06-15 20:30:00+00:00,356.0,354.0,2.85,3.04,,47.59359,-54.27349
2018-06-15 20:40:00+00:00,19.0,17.0,1.59,2.0,,47.59359,-54.27349
2018-06-15 20:50:00+00:00,48.0,43.0,0.63,0.92,,47.59359,-54.27349
2018-06-15 21:00:00+00:00,178.0,179.0,0.89,1.01,,47.59359,-54.27349
2018-06-15 21:10:00+00:00,21.0,6.0,0.21,0.45,,47.59359,-54.27349
2018-06-15 21:20:00+00:00,353.0,351.0,1.36,1.43,,47.59359,-54.27349
2018-06-15 21:30:00+00:00,13.0,14.0,0.94,1.08,,47.59359,-54.27349
2018-06-15 21:40:00+00:00,314.0,314.0,1.87,1.94,,47.59359,-54.27349
2018-06-15 21:50:00+00:00,332.0,331.0,1.68,1.79,,47.59359,-54.27349
2018-06-15 22:00:00+00:00,326.0,326.0,1.05,1.13,,47.59359,-54.27349
2018-06-15 22:10:00+00:00,0.0,14.0,0.03,0.07,,47.59359,-54.27349
2018-06-15 22:20:00+00:00,169.0,169.0,0.42,0.51,,47.59359,-54.27349
2018-06-15 22:30:00+00:00,259.0,265.0,1.18,1.41,,47.59359,-54.27349
2018-06-15 22:40:00+00:00,279.0,280.0,2.6,2.76,,47.59359,-54.27349
2018-06-15 22:50:00+00:00,258.0,258.0,2.72,2.83,,47.59359,-54.27349
2018-06-15 23:00:00+00:00,268.0,270.0,2.91,3.04,,47.59359,-54.27349
2018-06-15 23:10:00+00:00,261.0,262.0,2.87,2.92,,47.59359,-54.27349
2018-06-15 23:20:00+00:00,259.0,260.0,3.39,3.45,,47.59359,-54.27349
2018-06-15 23:30:00+00:00,261.0,262.0,3.85,4.18,,47.59359,-54.27349
2018-06-15 23:40:00+00:00,247.0,245.0,3.77,3.99,,47.59359,-54.27349
2018-06-15 23:50:00+00:00,224.0,215.0,3.59,3.78,,47.59359,-54.27349
